Retour au catalogue

CZ-2C DEB

ActifPO
NORAD 40265·DEBRIS·🇨🇳 China

Lancé Sep 28, 2014 depuis Jiuquan Satellite Launch Center

Loading…

Prochains Passages (prochaines 24 heures)

TLE

FraisSource: Space-Track

Époque: Sep 14, 2026, 02:38 UTC

1 40265U 14059E   26257.11040374  .00001340  00000-0  43878-3 0  9999
2 40265  97.9200 323.0754 0161531 206.9640 152.3086 14.32793365620897

Suivez CZ-2C DEB en temps réel avec AllMySat

Download on the App Store